CST,Max TemperatureF,Mean TemperatureF,Min TemperatureF,Max Dew PointF,MeanDew PointF,Min DewpointF,Max Humidity, Mean Humidity, Min Humidity, Max Sea Level PressureIn, Mean Sea Level PressureIn, Min Sea Level PressureIn, Max VisibilityMiles, Mean VisibilityMiles, Min VisibilityMiles, Max Wind SpeedMPH, Mean Wind SpeedMPH, Max Gust SpeedMPH,PrecipitationIn, CloudCover, Events, WindDirDegrees
2012-12-1,77,66,55,63,60,55,97,82,56,30.22,30.17,30.11,10,10,7,13,7,,0.00,5,,157
2012-12-2,78,71,64,64,63,58,96,83,52,30.23,30.17,30.13,10,10,9,14,8,18,0.00,5,,168
2012-12-3,73,68,62,67,64,61,100,90,69,30.16,30.11,30.07,10,8,1,16,9,22,0.28,8,Rain,164
2012-12-4,75,68,61,68,65,59,97,88,76,30.20,30.13,30.08,10,9,4,18,8,28,0.29,6,Rain-Thunderstorm,172
2012-12-5,64,60,55,61,57,54,100,86,75,30.21,30.14,30.06,10,10,9,12,6,,0.02,6,Rain,33
2012-12-6,66,58,51,57,54,50,100,91,70,30.06,29.97,29.93,10,6,0,8,3,,0.01,5,Fog,85
2012-12-7,73,62,51,61,56,50,100,90,61,29.97,29.92,29.86,10,5,0,9,3,,0.01,4,Fog,149
2012-12-8,73,68,62,67,63,60,100,90,71,29.96,29.91,29.87,10,8,1,12,6,,0.81,6,Rain-Thunderstorm,160
2012-12-9,78,70,62,68,65,62,100,90,62,29.95,29.89,29.82,10,8,0,15,7,18,0.01,6,Fog,178
2012-12-10,69,53,36,67,46,28,100,78,41,30.10,29.91,29.78,10,8,2,20,10,34,0.49,6,Rain-Thunderstorm,327
2012-12-11,51,40,30,33,27,22,85,61,33,30.24,30.15,30.09,10,10,10,12,6,,0.00,0,,14
2012-12-12,54,44,33,30,26,17,85,58,24,30.36,30.30,30.23,10,10,10,9,6,,0.00,0,,34
2012-12-13,62,46,30,34,27,21,88,60,21,30.39,30.32,30.26,10,10,10,7,1,,0.00,0,,91
2012-12-14,62,48,34,54,42,28,83,69,51,30.28,30.16,30.01,10,10,10,15,5,,0.00,5,,141
2012-12-15,75,67,59,65,61,55,90,81,69,30.02,29.95,29.89,10,10,10,15,10,22,0.00,8,Rain,166
2012-12-16,69,64,60,67,61,59,100,95,88,29.92,29.84,29.75,10,6,1,15,6,29,1.61,8,Rain-Thunderstorm,191
2012-12-17,66,56,46,61,53,35,100,82,32,29.94,29.83,29.79,10,6,1,16,6,21,0.00,4,,253
2012-12-18,75,57,39,54,45,37,93,69,35,29.98,29.93,29.89,10,10,10,13,4,18,0.00,0,,176
2012-12-19,77,65,53,68,62,52,96,81,62,29.94,29.84,29.76,10,10,10,17,10,28,0.01,5,,171
2012-12-20,73,58,41,67,35,15,88,53,27,30.38,30.07,29.75,10,9,2,24,16,44,0.09,3,Rain,302
2012-12-21,60,45,30,31,23,16,79,52,19,30.50,30.42,30.36,10,10,10,9,3,,0.00,0,,315
2012-12-22,64,47,30,40,30,22,89,56,20,30.40,30.31,30.19,10,10,10,13,3,16,0.00,1,,176
2012-12-23,68,60,53,63,57,43,89,80,69,30.16,29.98,29.90,10,10,10,13,8,22,0.02,8,Rain,179
2012-12-24,70,60,51,63,52,34,94,72,27,29.97,29.89,29.81,10,10,10,10,6,,0.00,3,,279
2012-12-25,66,52,37,64,50,30,100,87,53,29.94,29.67,29.51,10,7,0,25,9,50,1.07,8,Fog-Rain-Thunderstorm,106
2012-12-26,39,34,30,30,29,27,92,78,65,30.21,30.13,29.95,10,10,7,16,11,26,0.00,5,,324
2012-12-27,48,38,27,40,32,25,92,76,52,30.18,30.07,29.94,10,10,8,10,4,17,0.00,4,,99
2012-12-28,60,51,41,58,49,34,100,90,76,30.11,29.86,29.76,10,7,1,22,10,31,1.22,8,Rain,69
2012-12-29,48,40,30,34,24,18,79,58,32,30.46,30.32,30.12,10,10,10,21,12,29,0.00,1,,333
2012-12-30,48,38,28,32,25,20,78,60,36,30.53,30.43,30.32,10,10,10,13,5,,0.00,0,,86
2012-12-31,61,50,41,60,45,29,97,77,55,30.31,30.12,29.96,10,9,4,16,8,23,0.08,8,Rain,134